Location: Unspecified
(49.2170°N, 0.0000°E)
Time: 09:22:28
(UTC+00:00)

Transit 4A - Pass Details

Date: 25 June 2019
Orbit: 864 x 981 km, 66.8° (Epoch: 25 August)

Event Time Altitude Azimuth Distance (km) Brightness Sun altitude
Rises 05:57:41 0° 159° (SSE) 3,609 11.0 16.7°
Reaches altitude 10° 06:01:08 10° 140° (SE) 2,689 10.7 17.3°
Maximum altitude 06:04:57 17° 103° (ESE) 2,246 11.3 17.9°
Drops below altitude 10° 06:08:49 10° 65° (ENE) 2,731 12.5 18.5°
Sets 06:12:20 0° 47° (NE) 3,692 12.1 19.0°
